Home   Weather   Białystok   Past weeks

Flag for Poland Past Weather in Białystok, Poland — Yesterday and Last 2 Weeks

Now
29 °F

Fog.


Feels Like: 26 °F
Forecast: 24 / 35 °F
Wind: 3 mph from Southwest

Location: Bialystok

Current Time: Dec 5, 2016 at 3:31:10 am

Latest Report: Dec 5, 2016 at 2:00 am


Visibility: 1 mi

Pressure: 30.36 "Hg

Humidity: 96%

Dew Point: 28 °F

Location of BiałystokLocation

Past Weather in Białystok — Graph

°F

Białystok Temperature Yesterday

Maximum temperature yesterday: 31 °F (at 12:00 am)
Minimum temperature yesterday: 20 °F (at 6:00 pm)
Average temperature yesterday: 25 °F

High & Low Weather Summary for the Past Weeks

 TemperatureHumidityPressure
High48 °F (Nov 21, 1:00 pm)98% (Nov 24, 5:00 am)30.44 "Hg (Nov 24, 5:00 am)
Low12 °F (Nov 29, 10:00 pm)59% (Dec 3, 1:00 pm)29.41 "Hg (Dec 2, 1:00 am)
Average33 °F88%30.04 "Hg
* Reported Nov 20 2:00 am — Dec 5 2:00 am, Białystok, Weather by CustomWeather, © 2016

Note: Actual official high and low records may vary slightly from our data, if they occured in-between our weather recording intervals... More about our weather records

Advertising

Białystok Weather History for the Previous 24 Hours

Scroll right to see more
 ConditionsComfort  
Time TempWeatherWind HumidityBarometerVisibility
2:00 am
Mon, Dec 5
29 °FFog.3 mph96%30.36 "Hg1 mi
1:00 am29 °FFog.5 mph95%30.37 "Hg2 mi
12:00 am29 °FFog.3 mph95%30.39 "Hg2 mi
11:00 pm
Sun, Dec 4
28 °FFog.2 mph95%30.41 "Hg2 mi
10:00 pm26 °FFog.2 mph94%30.42 "Hg3 mi
9:00 pm24 °FFog.1 mph94%30.42 "Hg3 mi
8:00 pm24 °FFog.3 mph93%30.43 "Hg3 mi
7:00 pm22 °FFog.1 mph95%30.43 "Hg2 mi
6:00 pm20 °FFog.1 mph93%30.44 "Hg2 mi
5:00 pm21 °FFog.1 mph94%30.42 "Hg4 mi
4:00 pm22 °FFog.2 mph90%30.42 "Hg4 mi
3:00 pm25 °FPassing clouds.2 mph83%30.40 "Hg9 mi
2:00 pm27 °FScattered clouds.2 mph77%30.39 "Hg12 mi
1:00 pm27 °FScattered clouds.2 mph78%30.38 "Hg13 mi
12:00 pm27 °FScattered clouds.3 mph80%30.37 "Hg10 mi
11:00 am26 °FPartly sunny.2 mph85%30.35 "Hg10 mi
10:00 am25 °FPartly sunny.2 mph90%30.35 "Hg7 mi
9:00 am24 °FFog.2 mph91%30.34 "Hg6 mi
8:00 am23 °FFog.2 mph94%30.31 "Hg2 mi
7:00 am23 °FLow clouds.2 mph92%30.28 "Hg7 mi
6:00 am24 °FLow clouds.2 mph92%30.26 "Hg15 mi
5:00 am24 °FPassing clouds.2 mph92%30.24 "Hg31 mi
4:00 am24 °FClear.2 mph91%30.21 "Hg31 mi
3:00 am26 °FPassing clouds.3 mph89%30.19 "Hg31 mi
Weather by CustomWeather, © 2016

See weather overviewHow to use our weather pages